User: anonymous   Login
Location: Smithers
(54.7670°N, 127.1670°W)
Time: 12:13:25
(UTC-08:00)
Language:

ERBS - Orbit

View from above orbital plane
View from above orbital plane
View from above satellite
View from above satellite

Ground track
Ground track

The orbit data is extracted from the following two-line orbital elements,

1 15354U 84108B   14329.02471139  .00011015  00000-0  36925-3 0  6437
2 15354 057.0110 176.0782 0020085 127.2885 232.9999 15.31285930654233
Epoch (UTC): 25 November 2014 00:35:35
Eccentricity: 0.0020085
inclination: 57.0110°
perigee height: 458 km
apogee height: 486 km
right ascension of ascending node: 176.0782°
argument of perigee: 127.2885°
revolutions per day: 15.31285930
mean anomaly at epoch: 232.9999°
orbit number at epoch: 65423

The dashed part of the orbit path shows where the satellite is in the earth's shadow,  

DLR